Probability
0 0 0 0 0 0 0 0 0 0 0 0 0 0 0 0 3 3 3 3 3 0 0 0 0 0 0 0 0 0 0 0 0 0 0 0 0 0 0 0 0 0 0
0 0 0 0 0 0 0 0 0 0 0 0 0 0 0 0 0 3 3 3 3 0 0 0 0 0 0 0 0 0 0 0 0 0 0 0 0 0 0 0 0 0 0
0 0 0 0 0 0 0 0 0 0 0 0 0 0 0 0 0 0 0 0 0 0 0 0 0 0 0 0 0 0 0 0 0 0 0 0 0 0 0 0 0 0 0
0 0 0 0 0 0 0 0 0 0 0 0 0 0 0 0 0 0 0 0 0 0 0 0 0 0 0 0 0 0 0 0 0 0 0 0 0 0 0 0 0 0 0
0 0 0 0 0 0 0 0 0 0 0 0 0 0 0 0 0 0 0 0 0 0 0 0 0 0 0 0 0 0 0 0 0 0 0 0 0 0 0 0 0 0 0
0 0 0 0 0 0 0 0 0 0 0 0 0 0 0 0 0 0 0 0 0 0 0 0 0 0 0 0 0 0 0 0 0 0 0 0 0 0 0 0 0 0 0
0 0 0 0 0 0 0 0 0 0 0 0 0 0 0 0 0 0 0 0 0 0 0 0 0 0 0 0 0 0 0 0 0 0 0 0 0 0 0 0 0 0 0
0 0 0 0 0 0 0 0 0 0 0 0 0 0 0 0 0 0 0 0 0 0 0 0 0 0 0 0 0 0 0 0 0 0 0 0 0 0 0 0 0 0 0
0 0 0 0 0 0 0 0 0 0 0 0 0 0 0 0 0 0 0 0 0 0 0 0 0 0 0 0 0 0 0 0 0 0 0 0 0 0 0 0 0 0 0
0 0 0 0 0 0 0 0 0 0 0 0 0 0 0 0 0 0 0 0 0 0 0 0 0 0 0 0 0 0 0 0 0 0 0 0 0 0 0 0 0 0 0
0 0 0 0 0 0 0 0 0 0 0 0 0 0 0 0 0 0 0 0 0 0 0 0 0 0 0 0 0 0 0 0 0 0 0 0 0 0 0 0 0 0 0
0 0 0 0 0 0 0 0 0 0 0 0 0 0 0 0 0 0 0 0 0 0 0 0 0 0 0 0 0 0 0 0 0 0 0 0 0 0 0 0 0 0 0
0 0 0 0 0 0 0 0 0 0 0 0 0 0 0 0 0 0 0 0 0 0 0 0 0 0 0 0 0 0 0 0 0 0 0 0 0 0 0 0 0 0 0
0 0 0 0 0 0 0 0 0 0 0 0 0 0 0 0 0 0 0 0 0 0 0 0 0 0 0 0 0 0 0 0 0 0 0 0 0 0 0 0 0 0 0
0 0 0 0 0 0 0 0 0 0 0 0 0 0 0 0 0 0 0 0 0 0 0 0 0 0 0 0 0 0 0 0 0 0 0 0 0 0 0 0 0 0 0
0 0 0 0 0 0 0 0 0 0 0 0 0 0 0 0 0 0 0 0 0 0 0 0 0 0 0 0 0 0 0 0 0 0 0 0 0 0 0 0 0 0 0
0 0 0 0 0 0 0 0 0 0 0 0 0 0 0 0 0 0 0 0 0 0 0 0 0 0 0 0 0 0 0 0 0 0 0 0 0 0 0 0 0 0 0
0 0 0 0 0 0 0 0 0 0 0 0 0 0 0 0 0 0 0 0 0 0 0 0 0 0 0 0 0 0 0 0 0 0 0 0 0 0 0 0 0 0 0
0 0 0 0 0 0 0 0 0 0 0 0 0 0 0 0 0 0 0 0 0 0 0 0 0 0 0 0 0 0 0 0 0 0 0 0 0 0 0 0 0 0 0
0 0 0 0 0 0 0 0 0 0 0 0 0 0 0 0 0 0 0 0 0 0 0 0 0 0 0 0 0 0 0 0 0 0 0 0 0 0 0 0 0 0 0
0 0 0 0 0 0 0 0 0 0 0 0 0 0 0 0 0 0 0 0 0 0 0 0 0 0 0 0 0 0 0 0 0 0 0 0 0 0 0 0 0 0 0
0 0 0 0 0 0 0 0 0 0 0 0 0 0 0 0 0 0 0 0 0 0 0 0 0 0 0 0 0 0 0 0 0 0 0 0 0 0 0 0 0 0 0
0 0 0 0 0 0 0 0 0 0 0 0 0 0 0 0 0 0 0 0 0 0 0 0 0 0 0 0 0 0 0 0 0 0 0 0 0 0 0 0 0 0 0
0 0 0 0 0 0 0 0 0 0 0 0 0 0 0 0 0 0 0 0 0 0 0 0 0 0 0 0 0 0 0 0 0 0 0 0 0 0 0 0 0 0 0
0 0 0 0 0 0 0 0 0 0 0 0 0 0 0 0 0 0 0 0 0 0 0 0 0 0 0 0 0 0 0 0 0 0 0 0 0 0 0 0 0 0 0
0 0 0 0 0 0 0 0 0 0 0 0 0 0 0 0 0 0 0 0 0 0 0 0 0 0 0 0 0 0 0 0 0 0 0 0 0 0 0 0 0 0 0
Height
5776 5771 5767 5763 5760 5757 5753 5750 5748 5746 5745 5746 5747 5749 5751 5755 5758 5763 5767 5771 5776 5781 5786 5791 5795 5799 5803 5807 5811 5816 5820 5824 5828 5831 5834 5838 5841 5843 5845 5846 5848 5849 5850
5778 5773 5769 5764 5761 5757 5753 5750 5747 5745 5744 5743 5743 5744 5746 5748 5751 5755 5759 5763 5767 5772 5777 5781 5785 5790 5794 5798 5803 5807 5811 5815 5819 5823 5826 5829 5832 5835 5837 5839 5841 5842 5843
5779 5775 5770 5766 5761 5757 5754 5750 5747 5744 5742 5741 5740 5741 5741 5743 5745 5748 5752 5755 5759 5764 5768 5773 5777 5781 5785 5790 5794 5798 5802 5806 5811 5814 5818 5821 5824 5827 5830 5832 5833 5835 5836
5781 5776 5771 5767 5762 5758 5754 5750 5747 5744 5741 5739 5738 5737 5737 5738 5740 5742 5745 5748 5752 5756 5760 5765 5769 5773 5777 5781 5786 5790 5794 5798 5802 5806 5810 5814 5817 5820 5822 5824 5826 5827 5829
5783 5778 5773 5768 5763 5758 5754 5750 5746 5742 5739 5737 5736 5735 5734 5735 5735 5737 5739 5742 5745 5749 5753 5757 5761 5765 5769 5774 5778 5781 5785 5790 5794 5798 5802 5806 5809 5812 5815 5817 5819 5820 5821
5785 5779 5774 5769 5764 5758 5753 5749 5745 5741 5738 5735 5733 5732 5731 5731 5731 5732 5734 5736 5739 5743 5746 5750 5754 5758 5762 5766 5770 5773 5778 5782 5786 5791 5795 5798 5802 5805 5808 5810 5812 5814 5815
5786 5781 5775 5770 5764 5759 5753 5748 5744 5739 5736 5733 5730 5729 5728 5727 5728 5728 5729 5731 5734 5737 5740 5744 5748 5752 5755 5759 5762 5766 5771 5775 5779 5784 5788 5791 5795 5798 5801 5803 5806 5807 5809
5788 5782 5777 5771 5765 5759 5753 5748 5743 5738 5734 5731 5728 5726 5725 5725 5724 5724 5725 5727 5729 5732 5735 5738 5742 5746 5749 5753 5757 5761 5765 5769 5773 5778 5781 5785 5789 5792 5795 5798 5800 5802 5803
5790 5784 5778 5772 5766 5760 5754 5749 5744 5739 5734 5730 5728 5725 5723 5722 5722 5722 5722 5724 5726 5728 5730 5733 5737 5740 5744 5748 5752 5756 5760 5764 5768 5772 5776 5780 5783 5786 5789 5792 5794 5797 5799
5792 5786 5780 5775 5769 5763 5757 5751 5746 5741 5736 5731 5728 5725 5723 5721 5720 5720 5720 5721 5723 5725 5727 5730 5732 5736 5739 5743 5748 5752 5756 5760 5764 5767 5771 5775 5778 5781 5784 5787 5790 5793 5795
5794 5788 5783 5777 5771 5766 5760 5754 5749 5744 5738 5734 5730 5726 5723 5721 5720 5719 5719 5720 5722 5723 5725 5727 5730 5733 5736 5740 5744 5748 5752 5756 5760 5764 5767 5771 5774 5777 5780 5784 5787 5789 5792
5796 5791 5785 5780 5774 5769 5763 5758 5752 5747 5742 5737 5733 5729 5725 5723 5721 5720 5719 5720 5721 5722 5723 5725 5728 5731 5734 5738 5742 5746 5750 5754 5757 5761 5765 5768 5772 5775 5778 5781 5784 5787 5789
5798 5793 5788 5783 5778 5772 5767 5762 5756 5751 5746 5741 5736 5732 5728 5725 5723 5721 5721 5721 5721 5722 5723 5725 5727 5730 5734 5737 5741 5744 5748 5751 5755 5759 5763 5766 5770 5773 5776 5779 5782 5785 5786
5800 5795 5791 5786 5781 5775 5770 5765 5760 5755 5750 5745 5740 5736 5732 5728 5726 5724 5723 5723 5723 5723 5724 5726 5728 5731 5734 5737 5741 5744 5747 5750 5754 5758 5762 5766 5769 5772 5775 5778 5781 5783 5785
5802 5797 5793 5788 5783 5778 5774 5769 5764 5759 5754 5749 5745 5740 5736 5733 5730 5729 5728 5727 5727 5727 5728 5729 5731 5733 5736 5739 5742 5744 5747 5751 5754 5758 5762 5765 5768 5771 5774 5777 5779 5781 5784
5802 5798 5794 5790 5786 5781 5777 5772 5767 5763 5758 5754 5750 5746 5742 5739 5736 5735 5733 5732 5732 5732 5732 5733 5735 5736 5739 5741 5743 5746 5749 5752 5755 5759 5762 5765 5768 5771 5774 5776 5778 5780 5782
5802 5799 5795 5791 5788 5784 5779 5775 5771 5767 5763 5759 5755 5751 5748 5745 5743 5741 5739 5738 5737 5737 5737 5738 5739 5740 5742 5744 5746 5749 5751 5754 5757 5760 5763 5766 5768 5771 5773 5776 5778 5780 5781
5801 5798 5795 5792 5788 5785 5781 5778 5774 5770 5767 5763 5760 5756 5753 5751 5749 5747 5745 5744 5743 5743 5743 5743 5744 5745 5746 5748 5749 5751 5754 5756 5759 5761 5764 5766 5768 5771 5773 5775 5777 5779 5780
5799 5796 5794 5791 5788 5785 5782 5779 5776 5773 5770 5767 5764 5761 5758 5756 5754 5752 5750 5749 5748 5748 5747 5748 5748 5749 5750 5751 5752 5754 5756 5758 5760 5762 5765 5767 5769 5771 5773 5774 5776 5777 5779
5795 5793 5791 5789 5787 5784 5782 5779 5777 5774 5772 5769 5766 5764 5762 5760 5758 5756 5755 5754 5753 5752 5752 5752 5752 5752 5753 5754 5755 5757 5758 5760 5762 5763 5765 5767 5769 5771 5772 5774 5775 5776 5777
5790 5789 5787 5786 5784 5782 5780 5778 5776 5774 5772 5770 5768 5766 5764 5762 5761 5760 5758 5757 5756 5756 5756 5755 5755 5756 5756 5757 5758 5759 5760 5762 5763 5765 5766 5768 5769 5771 5772 5773 5774 5775 5776
5785 5783 5782 5781 5780 5778 5777 5775 5774 5773 5771 5770 5768 5767 5765 5764 5762 5761 5760 5759 5759 5758 5758 5758 5758 5758 5759 5759 5760 5761 5762 5763 5764 5765 5767 5768 5769 5770 5771 5772 5773 5774 5774
5777 5776 5775 5775 5774 5773 5772 5771 5770 5769 5768 5767 5766 5765 5764 5763 5762 5761 5761 5760 5760 5759 5759 5760 5760 5760 5760 5761 5761 5762 5763 5764 5765 5765 5766 5767 5768 5769 5770 5771 5771 5772 5772
5768 5768 5767 5767 5767 5766 5766 5766 5765 5765 5764 5763 5763 5762 5762 5761 5760 5760 5760 5759 5759 5759 5759 5759 5760 5760 5761 5761 5762 5762 5763 5763 5764 5765 5766 5766 5767 5768 5768 5768 5769 5769 5769
5757 5758 5758 5758 5758 5758 5758 5758 5758 5758 5758 5758 5758 5758 5758 5757 5757 5757 5757 5757 5757 5757 5757 5758 5758 5758 5759 5760 5760 5761 5761 5762 5762 5763 5763 5764 5765 5765 5765 5765 5766 5766 5766
5745 5746 5747 5747 5748 5749 5749 5750 5750 5750 5751 5751 5751 5752 5752 5752 5752 5752 5753 5753 5753 5753 5754 5754 5755 5755 5756 5756 5757 5758 5758 5759 5759 5760 5760 5761 5761 5761 5761 5761 5761 5761 5761
Wind_Speed
20 18 17 15 14 13 12 9 8 7 9 12 17 21 25 28 32 35 38 39 39 38 38 37 37 36 37 37 37 38 38 38 37 37 36 34 33 32 32 31 29 28 29
21 19 18 17 16 15 13 11 9 7 7 9 12 16 19 23 27 31 34 36 37 37 37 37 36 37 37 37 38 37 37 37 37 36 35 33 33 32 31 30 30 30 30
21 21 20 19 17 16 15 12 11 9 8 7 9 12 16 19 22 25 29 32 35 36 37 37 36 36 36 37 37 37 36 36 36 36 34 33 32 31 30 30 30 30 31
22 22 21 20 19 18 17 15 13 11 10 9 7 8 11 15 19 22 26 29 32 34 35 36 36 36 35 35 36 35 35 35 35 34 33 32 31 30 30 29 29 29 28
23 22 22 21 20 19 18 16 15 13 11 10 8 7 9 11 14 18 21 24 26 29 32 33 33 34 34 34 34 34 35 35 34 33 33 32 30 29 28 28 28 27 27
24 23 23 22 22 21 20 18 16 14 12 10 9 7 8 10 12 15 18 21 23 25 28 30 31 30 30 32 33 32 32 32 32 31 30 29 28 27 27 27 27 26 26
24 24 24 24 24 23 21 19 18 16 14 11 9 7 7 8 10 12 14 18 20 22 23 25 28 28 28 29 30 28 28 29 29 28 27 26 25 25 25 25 24 24 23
25 25 25 25 25 24 23 21 20 18 15 13 10 8 6 6 7 9 11 13 16 18 20 22 23 24 25 26 26 25 24 25 25 25 25 24 24 23 23 22 22 22 22
25 26 26 26 26 26 24 23 22 20 18 15 12 10 7 5 5 6 8 11 13 15 17 19 21 22 22 23 23 22 22 22 22 22 22 22 22 22 22 21 21 21 20
25 26 26 26 26 26 25 24 23 22 20 18 15 12 9 6 3 3 5 7 10 12 13 15 17 19 20 21 20 20 20 20 20 20 20 20 21 20 20 20 19 19 18
25 25 26 26 25 25 25 25 24 23 22 20 17 14 11 8 4 1 3 5 7 9 11 13 15 17 18 19 20 20 19 19 19 19 19 19 19 19 19 18 18 17 16
24 25 25 25 25 25 25 25 25 24 23 21 19 17 14 10 7 3 2 4 5 7 9 11 14 15 16 17 18 19 19 19 19 19 18 18 18 18 18 17 16 15 14
23 24 24 24 24 24 25 25 25 24 23 22 21 18 16 13 9 7 5 5 4 5 7 10 13 14 16 16 16 17 18 19 19 19 18 17 17 17 16 15 14 14 13
21 22 23 23 23 23 24 24 24 24 23 23 21 20 17 14 12 9 7 8 8 8 8 10 12 14 15 15 15 16 17 18 17 18 18 17 16 16 16 15 14 13 13
19 19 20 21 22 22 22 23 23 23 22 23 22 21 18 16 15 13 12 10 9 10 11 12 13 14 14 14 15 16 17 18 17 17 17 17 17 16 16 15 13 13 12
17 17 18 19 19 20 20 21 21 22 21 21 21 21 20 18 16 14 13 12 11 11 12 13 14 14 14 14 15 15 16 16 17 17 17 16 15 15 14 14 13 12 11
16 16 16 16 17 17 18 18 18 19 20 19 19 19 18 18 16 15 14 14 13 13 13 14 14 14 14 14 15 15 15 16 16 16 15 14 14 13 13 12 12 11 10
15 15 14 14 14 15 15 15 16 16 16 17 17 17 16 16 15 15 14 14 14 14 13 13 13 13 13 13 14 14 14 15 15 15 14 14 13 13 12 11 11 10 9
15 14 14 13 13 12 12 12 12 13 13 13 14 14 14 14 14 14 13 13 13 13 12 12 12 12 12 13 13 14 15 14 14 14 14 13 12 12 11 10 9 9 8
16 15 14 13 12 12 11 10 9 9 10 10 10 10 10 11 11 11 11 11 11 11 11 11 11 11 11 11 12 13 13 13 13 13 13 12 12 11 10 9 8 8 8
19 18 16 15 14 12 11 10 9 7 7 7 7 7 7 7 7 7 8 8 8 8 9 9 9 10 10 10 11 11 12 12 12 12 11 11 11 10 9 8 8 7 7
23 22 20 18 16 15 13 12 10 9 7 6 4 3 3 3 3 4 4 5 5 6 6 7 8 8 9 10 10 10 10 10 10 10 10 10 9 9 8 8 8 7 7
28 26 24 22 20 18 16 15 13 12 10 9 7 6 4 3 2 1 1 2 3 4 5 5 6 7 7 8 8 9 9 9 9 9 9 9 9 8 8 8 8 8 8
32 30 28 26 24 23 21 19 17 16 14 12 11 10 8 7 6 5 5 4 4 5 5 6 6 7 7 7 8 8 8 9 9 9 9 9 9 9 9 9 9 10 10
37 35 33 31 29 27 25 23 22 20 18 17 15 14 13 12 10 9 9 8 8 8 8 8 8 8 9 9 9 9 10 10 10 11 11 11 11 12 12 12 12 13 13
41 39 37 35 34 32 30 28 26 24 23 21 20 18 17 16 15 14 13 12 12 11 11 11 11 11 12 12 12 12 13 13 14 14 14 14 15 15 15 15 16 16 16
Wind_Direction
16 16 14 10 8 5 358 346 327 293 266 250 243 236 232 230 228 228 228 227 226 227 228 229 229 230 231 231 231 233 234 235 236 237 238 240 242 245 248 249 252 255 258
18 16 16 14 11 7 2 355 346 322 283 258 248 241 236 233 231 229 229 228 227 227 227 228 230 230 231 231 231 232 232 234 234 235 237 239 241 245 247 249 253 255 257
18 18 16 15 12 9 6 360 352 340 321 284 258 249 241 236 233 231 228 227 228 229 229 229 229 229 229 229 229 231 233 233 234 236 238 240 243 245 247 251 254 256 258
19 18 16 14 11 7 4 1 355 346 334 319 291 266 249 242 237 235 232 231 230 230 230 231 232 231 233 232 233 234 233 232 234 234 236 239 242 244 246 250 254 257 259
18 17 15 13 10 7 4 1 355 347 336 326 312 282 262 249 243 238 235 232 230 229 229 230 231 232 232 232 233 233 231 231 232 234 237 238 241 243 246 249 252 255 257
17 16 14 12 10 7 5 3 359 353 343 331 315 300 272 255 245 239 235 232 230 229 229 230 232 232 231 230 230 229 229 230 232 234 236 237 240 243 245 247 249 250 253
16 15 15 13 11 9 6 4 2 359 354 346 331 314 294 269 254 243 236 230 227 226 226 226 228 229 229 228 228 227 227 228 228 229 231 234 236 238 240 242 244 245 249
15 15 15 14 12 11 10 9 7 5 2 358 350 336 318 290 264 248 236 229 224 223 222 222 223 225 226 224 223 224 224 224 224 226 227 229 231 234 236 238 240 241 241
15 15 15 15 15 15 15 15 14 13 11 9 3 356 345 324 282 253 241 232 226 222 220 219 219 221 220 220 219 218 218 220 220 221 221 225 228 228 228 230 233 233 233
15 16 16 16 17 18 19 19 18 18 19 18 15 12 6 354 319 263 239 227 221 220 217 215 214 214 213 212 212 213 213 213 214 215 218 221 222 221 221 222 223 223 224
16 16 17 18 19 20 21 22 22 22 23 21 20 20 20 18 15 333 216 209 206 206 208 208 207 204 203 205 207 206 206 206 207 209 209 211 213 214 212 211 210 213 216
15 16 18 19 20 21 23 23 24 25 26 25 25 26 28 31 38 53 129 172 180 188 191 193 192 193 194 196 199 201 202 202 202 201 203 205 203 202 200 201 203 206 211
13 15 17 19 20 22 23 24 25 27 28 28 29 32 33 37 45 58 85 115 139 157 165 171 175 177 179 183 188 191 195 197 196 194 194 195 193 192 191 194 200 204 206
9 12 14 17 19 21 23 25 27 28 29 30 32 34 36 44 51 66 85 98 111 127 139 152 160 164 166 172 177 179 183 184 186 186 185 186 186 184 186 191 195 197 199
1 5 10 13 16 19 22 25 28 30 31 33 35 37 42 50 58 70 80 91 105 120 126 135 146 152 157 162 165 169 171 172 172 175 177 180 182 184 185 189 191 192 194
353 357 2 6 11 15 19 23 27 30 32 34 38 43 49 56 61 69 79 87 96 107 117 128 138 145 147 152 157 161 164 166 168 170 173 177 180 183 183 184 186 189 194
343 347 352 358 4 9 15 20 24 29 33 36 39 45 51 56 63 71 79 85 92 102 111 120 130 137 141 146 151 155 159 162 165 168 170 173 176 178 178 180 184 188 194
329 335 340 346 353 0 7 15 21 26 31 36 39 44 51 57 63 70 78 87 94 101 109 118 126 133 136 143 149 151 155 159 161 164 166 169 171 173 176 178 183 188 194
311 318 325 331 337 345 354 3 12 19 25 31 37 43 50 57 64 72 79 86 93 100 107 114 122 129 134 138 145 150 153 155 157 161 166 169 171 175 178 182 186 191 196
294 298 304 311 317 324 332 342 352 4 15 23 32 40 48 56 64 72 78 84 91 99 107 114 122 128 133 138 143 149 154 157 160 164 168 172 174 177 179 183 189 194 198
282 284 287 291 297 301 306 313 322 332 346 3 18 32 45 54 62 70 80 87 94 101 109 118 126 133 139 143 147 151 155 158 161 165 169 173 177 181 187 193 198 201 205
274 274 275 276 279 283 287 290 294 299 305 312 325 347 16 42 61 77 86 93 101 109 118 126 133 139 142 145 150 155 160 163 167 171 175 180 185 190 196 202 206 211 218
269 269 268 268 268 269 271 274 276 277 278 280 282 281 278 274 268 229 173 150 140 140 143 148 153 158 162 164 166 169 174 179 183 187 191 195 199 204 211 217 222 228 234
266 265 264 264 263 262 262 263 264 266 266 265 264 263 262 258 253 248 240 229 216 204 195 190 188 189 190 191 193 195 197 200 202 205 208 211 217 224 230 235 239 244 250
262 262 261 260 259 258 258 257 257 258 259 258 257 256 255 253 251 248 244 240 235 231 226 221 218 216 217 218 218 218 219 221 222 225 229 233 237 241 245 248 252 255 259
260 259 258 257 256 256 255 254 253 253 254 254 254 254 253 252 250 249 247 245 242 240 238 236 234 234 234 234 235 237 238 239 241 243 245 247 249 252 254 256 258 261 265